Regional Weather Roundup
Issued by NWS

Home | Current Version | Previous Version | Graphics & Text | Print | Product List | Glossary On
Versions: 1 2 3 4 5 6 7 8 9 10 11 12 13 14 15 16 17 18 19 20 21 22 23 24 25 26 27 28 29 30 31 32 33 34 35 36 37 38 39 40 41 42 43 44 45 46 47 48 49 50
810
ASUS43 KLOT 270903
RWRIL

ILLINOIS REGIONAL WEATHER ROUNDUP
NATIONAL WEATHER SERVICE CHICAGO/ROMEOVILLE IL
400 AM CDT TUE SEP 27 2016

NOTE: "FAIR" INDICATES FEW OR NO CLOUDS BELOW 12,000 FEET WITH NO
SIGNIFICANT WEATHER AND/OR OBSTRUCTIONS TO VISIBILITY.

* THESE STATIONS ARE NOT UNDER NWS QUALITY CONTROL. THEY ALSO MAY NOT
  REPORT WEATHER SUCH AS PRECIPITATION OR FOG.

ILZ001-002-007-009-015-016-024-271000-
NORTHWEST ILLINOIS

CITY           SKY/WX    TMP DP  RH WIND       PRES   REMARKS
MOLINE         CLEAR     50  43  77 W7        29.93F
STERLING*      CLEAR     50  44  80 SW7       29.91F
$$

ILZ003-004-008-010-011-017-018-271000-
NORTH CENTRAL ILLINOIS

CITY           SKY/WX    TMP DP  RH WIND       PRES   REMARKS
ROCKFORD       CLEAR     52  41  66 W9        29.88F
ROCHELLE*      CLEAR     48  42  79 SW8       29.89F
$$

ILZ005-006-012>014-019>023-271000-
NORTHEAST ILLINOIS

CITY           SKY/WX    TMP DP  RH WIND       PRES   REMARKS
CHICAGO-OHARE  CLEAR     54  39  57 W13       29.85F
CHICAGO-MIDWAY CLEAR     56  40  55 SW12      29.86F
AURORA         CLEAR     50  42  74 SW9       29.88F
LANSING*       CLEAR     50  44  79 SW7       29.88F
JOLIET*        CLEAR     55  44  67 W8        29.89F
WAUKEGAN       CLEAR     53  39  59 VRB6      29.81F
DUPAGE AIRPORT NOT AVBL
KANKAKEE*      CLEAR     47  42  84 SW6       29.91F
WHEELING       CLEAR     54  38  54 SW8       29.85F
MORRIS*        CLEAR     51  43  74 W6        29.89F
ROMEOVILLE*    CLEAR     51  45  81 W8        29.88F
NORTHERLY ISL    N/A     57  38  48 W3          N/A
$$

LMZ740>746-271000-
SOUTHERN LAKE MICHIGAN

STATION/POSITION SKY/WX   TEMP    WIND        PRES    VSBY  WAVE
                          AIR SEA DIR/SP/G                  HT/PER
                          (F)     (DEG/KT/KT) (MB)    (MI)  (FT/S)
SOUTHERN BUOY              63 70  250/ 23/ 29 1008.2          5/ 5
WILMETTE HARBOR            59 62  270/ 14/ 17   N/A           1/ 2
HARRISON CRIB              62     250/ 18/ 22   N/A
BURNHAM HARBOR             57     250/  9/  9   N/A
CALUMET HARBOR             56     220/  5/ 10 1011.4F
BURNS HARBOR               57     210/ 14/ 18 1012.2F
MICHIGAN CITY              56     190/ 16/ 18   N/A
MICHIGAN CITY 6N           61 67  240/ 17/ 21   N/A           4/ 4
ST. JOSEPH                 66 65  250/ 19/ 23 1010.7F         7/ 6
$$

ILZ025>027-034>036-040-047-049-050-058-095>099-271000-
WEST-CENTRAL ILLINOIS

CITY           SKY/WX    TMP DP  RH WIND       PRES   REMARKS
QUINCY         CLEAR     53  45  74 SW7       30.00F
GALESBURG*       N/A     53  45  74 W6        29.95
MACOMB*        CLEAR     51  46  82 W7        29.99F
JACKSONVILLE*  CLEAR     55  44  67 SW9       29.99F
PITTSFIELD*    CLEAR     57  45  62 SW9       30.02F
$$

ILZ028>032-037-038-041>044-048-051>054-059>061-271000-
CENTRAL ILLINOIS

CITY           SKY/WX    TMP DP  RH WIND       PRES   REMARKS
PONTIAC        CLEAR     52  46  80 W8        29.93F
BLOOMINGTON    CLEAR     51  44  77 SW12      29.96F
DECATUR        CLEAR     57  42  57 SW12      29.98F
PEORIA         CLEAR     53  45  74 SW6       29.95S
LACON*         CLEAR     51  43  73 SW3       29.93F
LINCOLN*       CLEAR     55  45  69 SW5       29.97F
SPRINGFIELD    CLEAR     55  44  66 SW7       29.99F
TAYLORVILLE    CLEAR     56  42  58 SW8       30.00F
$$

ILZ033-039-045-046-055>057-062-063-271000-
EAST-CENTRAL ILLINOIS

CITY           SKY/WX    TMP DP  RH WIND       PRES   REMARKS
CHAMPAIGN      CLEAR     51  42  71 SW7       29.97F
RANTOUL*       CLEAR     55  44  65 SW9       29.95F
MATTOON        PTCLDY    55  41  59 SW7       29.99F
PARIS*         CLEAR     51  43  74 CALM      29.99F
$$

ILZ079-100>102-271000-
SOUTHWEST ILLINOIS

CITY           SKY/WX    TMP DP  RH WIND       PRES   REMARKS
BELLEVILLE     CLEAR     51  47  87 SW6       30.03F
CAHOKIA*       CLEAR     54  47  77 SW5       30.04F
SPARTA*        PTCLDY    53  46  78 SW5       30.06F
$$

ILZ064>066-069>071-074>076-080>082-084>086-088>090-092>094-271000-
SOUTH-CENTRAL ILLINOIS

CITY           SKY/WX    TMP DP  RH WIND       PRES   REMARKS
CARBONDALE     CLEAR     47  47 100 S3        30.06F
EFFINGHAM*     CLEAR     49  47  94 SW3       30.03F
MARION         CLEAR     52  52 100 CALM      30.06F
MT. VERNON     CLEAR     46  41  81 CALM      30.05F
CENTRALIA*     CLEAR     51  48  90 SW5       30.03F
SALEM*         CLEAR     50  46  86 CALM      30.04F
METROPOLIS*    CLEAR     49  49  99 CALM      30.07F
$$

ILZ067-068-072-073-078-083-087-091-271000-
SOUTHEAST ILLINOIS

CITY           SKY/WX    TMP DP  RH WIND       PRES   REMARKS
LAWRENCEVILLE  CLEAR     49  45  86 S7        30.03F
FLORA*         PTCLDY    50  47  89 SW3       30.03F
FAIRFIELD*       N/A     48  48  99 CALM      30.04S
HARRISBURG*    CLEAR     49  49 100 CALM      30.06F
ROBINSON*      PTCLDY    49  44  83 CALM      30.02F
CARMI*         CLEAR     47  47 100 CALM      30.04F
$$

ABBREVIATIONS USED IN REMARKS
   TC - TEMPERATURE IN CELSIUS
  WCI - WIND CHILL INDEX
   HX - HEAT INDEX
  VSB - VISIBILITY
$$





USA.gov is the U.S. government's official web portal to all federal, state and local government web resources and services.